TimeCST,TemperatureF,Dew PointF,Humidity,Sea Level PressureIn,VisibilityMPH,Wind Direction,Wind SpeedMPH,Gust SpeedMPH,PrecipitationIn,Events,Conditions,WindDirDegrees,DateUTC
12:53 AM,28.0,21.9,78,30.11,9.0,ESE,4.6,-,N/A,,Clear,120,2013-02-25 06:53:00
1:53 AM,27.0,21.9,81,30.10,8.0,Calm,Calm,-,N/A,,Mostly Cloudy,0,2013-02-25 07:53:00
2:53 AM,25.0,21.0,85,30.09,7.0,ENE,4.6,-,N/A,,Clear,70,2013-02-25 08:53:00
3:53 AM,25.0,21.0,85,30.09,7.0,ENE,4.6,-,N/A,,Clear,60,2013-02-25 09:53:00
4:53 AM,27.0,21.9,81,30.09,7.0,East,4.6,-,N/A,,Scattered Clouds,80,2013-02-25 10:53:00
5:53 AM,26.1,21.9,84,30.09,6.0,ENE,6.9,-,N/A,,Clear,70,2013-02-25 11:53:00
6:53 AM,28.0,23.0,81,30.09,5.0,East,6.9,-,N/A,,Haze,80,2013-02-25 12:53:00
7:53 AM,28.0,23.0,81,30.11,5.0,ENE,6.9,-,N/A,,Haze,70,2013-02-25 13:53:00
8:53 AM,30.0,23.0,75,30.09,6.0,NE,5.8,-,N/A,,Haze,50,2013-02-25 14:53:00
9:53 AM,33.1,25.0,72,30.11,7.0,East,6.9,-,N/A,,Clear,90,2013-02-25 15:53:00
10:53 AM,35.1,26.1,70,30.09,8.0,East,5.8,-,N/A,,Clear,80,2013-02-25 16:53:00
11:53 AM,37.0,27.0,67,30.09,9.0,East,11.5,-,N/A,,Clear,100,2013-02-25 17:53:00
12:53 PM,37.9,28.0,68,30.06,9.0,East,8.1,-,N/A,,Clear,80,2013-02-25 18:53:00
1:53 PM,37.9,28.0,68,30.04,9.0,ENE,8.1,-,N/A,,Clear,60,2013-02-25 19:53:00
2:53 PM,39.0,28.9,67,30.01,9.0,ENE,10.4,-,N/A,,Clear,60,2013-02-25 20:53:00
3:53 PM,39.0,30.0,70,30.00,8.0,NE,11.5,-,N/A,,Clear,50,2013-02-25 21:53:00
4:53 PM,37.9,30.9,76,29.97,7.0,NE,13.8,-,N/A,,Clear,40,2013-02-25 22:53:00
5:53 PM,37.0,30.0,76,29.97,8.0,NE,11.5,-,N/A,,Clear,50,2013-02-25 23:53:00
6:53 PM,36.0,30.0,79,29.96,8.0,NE,11.5,-,N/A,,Clear,40,2013-02-26 00:53:00
7:53 PM,35.1,30.0,82,29.95,7.0,NNE,16.1,-,N/A,,Overcast,30,2013-02-26 01:53:00
8:53 PM,35.6,30.2,81,29.93,7.0,NE,12.7,-,N/A,,Clear,50,2013-02-26 02:53:00
9:53 PM,36.0,28.9,76,29.90,8.0,ENE,18.4,25.3,N/A,,Overcast,70,2013-02-26 03:53:00
10:53 PM,35.1,28.9,78,29.86,8.0,NE,18.4,25.3,N/A,,Overcast,50,2013-02-26 04:53:00
11:53 PM,35.1,28.0,76,29.85,8.0,NE,13.8,-,N/A,,Overcast,40,2013-02-26 05:53:00